Weather History for PAOM - May, 2014

Change the Weather History Date:

Saturday, May 31, 2014

  Actual Average Record
Temperature  
Mean Temperature 44 °F 43 °F  
Max Temperature 52 °F 50 °F 74 °F (1990)
Min Temperature 35 °F 36 °F 19 °F (1933)
Degree Days  
Heating Degree Days 21 22  
Month to date heating degree days 920 875  
Since 1 July heating degree days 11786 13188  
Cooling Degree Days 0    
Month to date cooling degree days 0  
Year to date cooling degree days 0  
Moisture  
Dew Point 37 °F    
Average Humidity 0    
Maximum Humidity 0    
Minimum Humidity 0    
Precipitation  
Precipitation T in 0.03 in 0.62 in (1916)
Month to date precipitation 1.32 0.86  
Year to date precipitation 4.47 4.14  
Snow  
Snow 0.00 in 0.00 in 0.10 in (1999)
Month to date snowfall 2.6 2.3  
Since 1 July snowfall 72.3 75.4  
Snow Depth 0.00 in    
Sea Level Pressure  
Sea Level Pressure 29.63 in    
Wind  
Wind Speed 15 mph (West)    
Max Wind Speed 28 mph    
Max Gust Speed 35 mph    
Visibility 10 miles    
Events      
T = Trace of Precipitation, MM = Missing Value Source: NWS Daily Summary

Daily Weather History Graph

Daily Weather History Graph

Search for Another Location

Airport or City:

Trip Planner

Search our weather history database for the weather conditions in past years. The results will help you decide how hot, cold, wet, or windy it might be!

Date:

Astronomy

May. 31, 2014 Rise Set
Actual Time 4:52 AM AKDT 1:09 AM AKDT
Civil Twilight Sun does not rise Sun does not rise
Nautical Twilight Sun does not rise Sun does not rise
Astronomical Twilight Sun does not rise Sun does not rise
Moon 8:34 AM AKDT (5/31) 2:01 AM AKDT (5/31)
Length of Visible Light 24h 00m
Length of Day
20h 17m
Waxing Crescent, 9% of the Moon is Illuminated
May 31
Waxing Crescent
Jun 5
First Quarter
Jun 12
Full
Jun 19
Last Quarter
Jun 27
New

Hourly Weather History & Observations

Time (AKDT) Temp. Windchill Dew Point Humidity Pressure Visibility Wind Dir Wind Speed Gust Speed Precip Events Conditions
12:03 AM 34.0 °F 26.6 °F 34.0 °F 100% 29.60 in 2.0 mi West 9.2 mph - N/A   Overcast
12:11 AM 34.0 °F 27.2 °F 34.0 °F 100% 29.60 in 5.0 mi WNW 8.1 mph - N/A   Overcast
12:53 AM 35.1 °F 28.6 °F 35.1 °F 100% 29.60 in 10.0 mi WNW 8.1 mph - N/A   Overcast
1:23 AM 35.1 °F 31.0 °F 35.1 °F 100% 29.59 in 10.0 mi WNW 4.6 mph - N/A   Overcast
1:53 AM 35.1 °F 30.1 °F 35.1 °F 100% 29.59 in 10.0 mi West 5.8 mph - N/A   Overcast
2:53 AM 36.0 °F 32.1 °F 35.1 °F 97% 29.58 in 10.0 mi NW 4.6 mph - N/A   Overcast
3:53 AM 37.9 °F 34.4 °F 36.0 °F 93% 29.58 in 10.0 mi West 4.6 mph - N/A   Overcast
4:53 AM 39.9 °F 33.9 °F 36.0 °F 86% 29.57 in 10.0 mi West 9.2 mph - N/A   Overcast
5:53 AM 39.0 °F 34.8 °F 36.0 °F 89% 29.57 in 10.0 mi WNW 5.8 mph - N/A   Overcast
6:53 AM 41.0 °F 35.2 °F 37.4 °F 87% 29.57 in 10.0 mi West 9.2 mph - N/A   Overcast
7:53 AM 42.1 °F 35.7 °F 37.9 °F 85% 29.58 in 10.0 mi West 11.5 mph - N/A   Overcast
8:53 AM 44.1 °F 38.6 °F 39.0 °F 82% 29.58 in 10.0 mi West 10.4 mph - N/A   Mostly Cloudy
9:53 AM 46.9 °F - 39.9 °F 77% 29.58 in 10.0 mi West 10.4 mph - 0.00 in   Mostly Cloudy
10:53 AM 48.9 °F - 41.0 °F 74% 29.59 in 10.0 mi WNW 16.1 mph - 0.00 in   Mostly Cloudy
11:53 AM 50.0 °F - 42.1 °F 74% 29.60 in 10.0 mi WNW 16.1 mph - N/A   Mostly Cloudy
12:53 PM 50.0 °F - 41.0 °F 71% 29.61 in 10.0 mi WNW 18.4 mph - N/A   Mostly Cloudy
1:53 PM 51.1 °F - 41.0 °F 68% 29.62 in 10.0 mi WNW 19.6 mph - N/A   Mostly Cloudy
2:53 PM 48.2 °F - 41.0 °F 76% 29.62 in 10.0 mi West 20.7 mph - N/A   Mostly Cloudy
3:53 PM 48.0 °F - 41.0 °F 77% 29.64 in 10.0 mi West 18.4 mph - N/A   Mostly Cloudy
4:53 PM 46.0 °F 38.3 °F 39.9 °F 79% 29.65 in 10.0 mi WSW 20.7 mph - N/A   Mostly Cloudy
5:53 PM 41.0 °F 31.6 °F 37.0 °F 86% 29.67 in 10.0 mi West 20.7 mph - N/A   Overcast
6:53 PM 42.1 °F 32.8 °F 37.9 °F 85% 29.69 in 10.0 mi WSW 21.9 mph - N/A   Mostly Cloudy
7:53 PM 42.1 °F 31.7 °F 37.0 °F 82% 29.71 in 10.0 mi West 27.6 mph 33.4 mph N/A   Mostly Cloudy
8:53 PM 39.9 °F 30.0 °F 36.0 °F 86% 29.72 in 10.0 mi West 21.9 mph - N/A   Mostly Cloudy
9:53 PM 39.9 °F 31.4 °F 35.1 °F 83% 29.75 in 10.0 mi WNW 16.1 mph - N/A   Mostly Cloudy
10:53 PM 37.9 °F 28.5 °F 34.0 °F 86% 29.77 in 10.0 mi WNW 17.3 mph - N/A   Mostly Cloudy
11:53 PM 37.0 °F 27.4 °F 33.1 °F 86% 29.79 in 10.0 mi WNW 17.3 mph - N/A   Mostly Cloudy